Pensacola Beach, Florida, United States
Lat: 30.38N, Lon: 87.09W
Wx Zone: FLZ004
Local Info
Past Weather Observations for Today

NOTE: This archive is for the closest National Weather Service station to Pensacola Beach. Information may differ from the station used for current weather conditions.

Time Weather Temperature Dewpoint Humidity Pressure Winds Precip Visibility
15:53
Clear
75°F / 24°C 63°F / 17°C 65% 29.95 in
(1014 mb)
S 16.1 mph
(S 26 kph)
- 10SM
14:53
Clear
75°F / 24°C 63°F / 17°C 65% 29.95 in
(1014 mb)
S 13.8 mph
(S 22 kph)
- 10SM
13:53
Clear
77°F / 25°C 64°F / 18°C 65% 29.98 in
(1015 mb)
S 13.8 mph
(S 22 kph)
- 10SM
12:53
Clear
75°F / 24°C 63°F / 17°C 65% 29.98 in
(1015 mb)
S 15 mph
(S 24 kph)
- 10SM
11:53
Partly Cloudy
75°F / 24°C 64°F / 18°C 69% 29.98 in
(1015 mb)
S 10.4 mph
(S 17 kph)
- 10SM
10:53
Partly Cloudy
77°F / 25°C 64°F / 18°C 65% 30.01 in
(1016 mb)
SSE 11.5 mph
(SSE 19 kph)
- 10SM
09:53
Clear
77°F / 25°C 63°F / 17°C 61% 30.01 in
(1016 mb)
Variable 5.8 mph
(Variable 9 kph)
- 10SM
08:53
Clear
75°F / 24°C 64°F / 18°C 69% 30.01 in
(1016 mb)
SE 6.9 mph
(SE 11 kph)
- 10SM
07:53
Partly Cloudy
72°F / 22°C 64°F / 18°C 78% 29.98 in
(1015 mb)
SE 4.6 mph
(SE 7 kph)
- 9SM
07:01
Partly Cloudy
70°F / 21°C 66°F / 19°C 88% 29.98 in
(1015 mb)
S 5.8 mph
(S 9 kph)
- 7SM
06:53
Partly Cloudy
Fog And Mist
70°F / 21°C 66°F / 19°C 88% 29.98 in
(1015 mb)
S 5.8 mph
(S 9 kph)
- 6SM
06:00
Overcast
Fog And Mist
66°F / 19°C 64°F / 18°C 94% 29.98 in
(1015 mb)
Calm - 4SM
05:53
Partly Cloudy
Fog And Mist
66°F / 19°C 64°F / 18°C 94% 29.98 in
(1015 mb)
Calm - 4SM
05:02
Partly Cloudy
Fog And Mist
64°F / 18°C 63°F / 17°C 94% 29.95 in
(1014 mb)
Calm - 3SM
04:53
Clear
Fog And Mist
64°F / 18°C 63°F / 17°C 94% 29.95 in
(1014 mb)
Calm - 4SM
04:16
Partly Cloudy
66°F / 19°C 64°F / 18°C 94% 29.95 in
(1014 mb)
Calm - 7SM
03:53
Overcast
Fog And Mist
68°F / 20°C 64°F / 18°C 88% 29.95 in
(1014 mb)
SSW 4.6 mph
(SSW 7 kph)
- 6SM
02:53
Overcast
Fog And Mist
66°F / 19°C 64°F / 18°C 94% 29.95 in
(1014 mb)
Calm - 4SM
02:41
Mostly Cloudy
Fog And Mist
66°F / 19°C 64°F / 18°C 94% 29.95 in
(1014 mb)
Calm - 4SM
02:32
Mostly Cloudy
Fog And Mist
66°F / 19°C 64°F / 18°C 94% 29.95 in
(1014 mb)
Calm - 4SM
01:53
Mostly Cloudy
Fog And Mist
66°F / 19°C 64°F / 18°C 94% 29.92 in
(1013 mb)
Calm - 6SM
00:53
Mostly Cloudy
Fog And Mist
66°F / 19°C 63°F / 17°C 88% 29.92 in
(1013 mb)
SE 3.5 mph
(SE 6 kph)
- 6SM
Time Weather Temperature Dewpoint Humidity Pressure Winds Precip Visibility


Weather for websites

WeatherForYou.com, LLC is not responsible for any damages or problems caused by this service. Current weather conditions are obtained from the closest station including government and personal stations which may have varying degrees of accuracy. Weather forecasts are derived from the NOAA NDFD. Like all things, this site belongs to Jesus Christ... He just trusts me to maintain it. If you have any questions or comments email webmaster@weatherforyou.com

Copyright © 2014, WeatherForYou.com LLC. All rights reserved.